RH
86 77 80 82 84 81 80 82 80 81 84 87 84 88 83 81 76 74 79 79 76 79 66 56 65 70 76 56 45 37 62 64 52 44 32 20 21 18 16 17 14 15 40 42 71
85 77 79 85 84 83 81 81 79 81 80 81 84 84 88 84 75 60 53 68 89 73 67 55 60 67 79 56 50 46 62 54 37 29 30 24 22 22 20 21 19 16 35 40 64
76 76 82 87 87 84 84 81 80 78 80 81 84 84 90 80 68 52 44 58 76 82 63 58 52 67 78 53 48 44 54 41 32 28 32 29 22 19 22 26 19 18 26 44 52
84 86 86 88 87 85 88 87 82 79 82 84 86 85 90 77 84 51 51 46 72 87 63 66 44 70 74 63 44 45 40 33 30 34 32 29 23 22 22 22 21 29 27 34 48
86 87 90 92 92 90 90 88 87 82 82 86 88 87 83 74 65 46 46 47 74 86 62 66 49 63 68 55 45 48 36 30 28 39 36 26 27 26 22 21 22 26 26 24 22
86 87 90 90 91 95 93 88 88 85 82 81 70 72 76 77 44 40 46 68 69 76 70 52 44 46 51 48 49 40 38 33 32 40 36 32 30 26 24 21 24 22 23 24 23
86 87 88 89 93 93 95 88 86 83 87 88 87 77 68 60 40 69 54 59 84 76 68 46 40 41 48 56 44 38 44 44 34 40 40 36 40 36 26 23 26 25 25 23 22
91 86 88 90 95 84 86 86 80 87 86 89 79 75 73 49 48 44 50 62 66 83 75 45 39 40 47 45 54 49 47 59 38 38 38 41 49 34 28 30 30 25 22 22 21
89 91 91 94 91 78 86 80 86 87 89 87 83 75 63 39 44 42 40 58 69 82 75 53 45 59 49 64 74 64 62 57 46 34 36 40 42 31 25 29 30 27 23 20 20
92 91 94 94 77 78 64 66 80 75 77 67 72 76 55 43 58 45 50 62 83 78 82 71 71 80 68 76 86 69 73 46 46 37 37 47 47 28 27 27 29 26 23 22 22
92 94 95 93 80 61 78 76 67 72 56 57 55 56 48 57 66 57 71 75 78 91 88 68 85 87 74 59 45 41 48 49 34 36 39 42 44 34 28 28 30 31 27 24 23
93 96 92 89 67 69 72 53 68 70 70 44 42 42 50 71 82 62 75 92 96 92 69 85 89 64 54 48 45 36 39 42 30 40 42 40 38 31 29 31 31 31 28 25 23
97 98 95 81 71 71 58 71 80 71 73 52 53 56 68 76 86 78 80 85 96 89 73 79 66 57 57 50 46 40 44 36 41 44 39 39 42 38 32 28 27 27 28 25 23
93 100 96 74 80 64 61 72 77 68 98 77 78 93 84 84 86 86 75 79 92 67 62 85 71 71 80 69 42 48 34 33 46 55 57 42 43 41 38 34 31 30 27 27 32
93 100 93 73 82 61 72 71 72 77 94 81 89 85 87 96 86 88 80 77 86 85 78 93 86 80 94 73 44 40 36 48 51 56 52 51 59 41 37 39 36 33 36 39 40
94 99 82 74 79 74 77 77 77 100 96 100 93 93 96 86 80 78 83 83 61 82 82 94 75 80 82 82 76 44 53 53 50 57 88 58 47 49 41 38 37 36 40 42 44
97 100 83 79 70 75 76 81 100 94 90 99 100 94 94 88 87 86 93 86 89 97 100 97 96 87 91 87 63 56 67 86 94 96 84 45 53 50 31 34 36 40 42 44 44
80 80 77 72 76 77 81 98 90 82 100 93 84 70 86 86 95 90 83 83 71 81 99 99 100 97 93 82 82 64 65 89 73 92 70 44 62 37 32 38 39 39 43 42 42
75 70 70 72 83 79 91 94 87 90 93 98 65 70 76 63 70 86 74 70 80 80 99 100 100 94 90 78 76 86 96 48 64 42 78 53 38 31 39 40 38 42 43 48 48
96 64 58 70 84 86 93 87 99 83 74 70 65 51 64 61 63 67 60 50 55 46 47 68 98 96 92 79 78 78 57 73 94 70 66 47 45 42 42 41 36 47 49 48 46
89 66 71 80 84 86 95 85 84 60 60 71 53 50 49 52 46 49 54 51 41 45 42 53 71 98 92 97 98 93 96 64 62 57 65 51 42 28 34 37 38 43 44 43 48
78 82 66 81 93 76 71 62 73 57 56 61 51 42 44 44 46 48 56 52 41 39 50 50 67 94 73 51 52 62 55 62 94 72 71 65 54 26 31 37 41 42 43 44 55
83 68 64 80 83 71 67 61 58 53 50 49 48 47 45 44 54 48 56 49 44 49 51 48 74 93 78 63 53 62 52 48 65 82 86 79 56 28 34 36 36 40 42 52 56
76 89 78 70 60 66 62 68 60 61 50 44 44 42 43 45 43 52 58 52 49 49 52 46 56 73 87 82 74 82 63 56 84 92 71 58 47 36 36 36 37 42 44 56 56
64 84 78 93 73 66 58 52 52 53 50 43 45 43 42 49 46 48 55 58 52 51 47 55 84 78 58 65 94 80 67 66 90 74 74 53 45 39 35 34 40 37 54 56 55
70 88 77 74 67 64 63 51 54 51 55 47 48 42 39 47 50 50 49 51 52 50 48 56 86 82 86 54 64 76 62 64 65 64 60 51 50 33 36 38 42 43 59 60 53
59 66 90 68 66 60 75 64 64 59 58 53 56 45 44 58 47 40 42 39 42 51 53 62 82 88 86 58 60 80 62 59 62 56 58 68 49 38 38 43 46 55 62 56 53
Wind_Speed
21 23 23 20 18 16 16 16 15 15 15 13 13 14 13 9 10 12 17 8 21 4 7 18 14 14 13 11 14 9 5 11 19 19 11 7 6 5 3 5 2 5 9 9 17
23 23 24 21 19 18 16 16 15 14 14 13 13 12 12 12 14 23 18 18 16 24 8 18 14 14 4 11 6 8 8 13 12 9 8 12 5 9 5 6 6 5 11 11 14
24 24 23 22 20 19 17 15 14 14 13 13 13 10 10 8 16 23 24 25 24 22 17 17 19 14 11 6 12 7 10 14 13 2 7 8 2 2 5 6 8 8 11 10 13
27 26 25 23 20 18 17 15 14 13 12 13 11 8 6 7 7 9 12 32 27 20 19 13 16 14 10 12 14 7 16 14 11 5 2 2 6 4 9 5 8 11 9 7 7
29 28 27 25 23 20 16 15 14 13 12 11 9 6 3 7 15 23 8 24 29 26 24 14 17 16 14 15 10 17 11 16 4 7 1 3 4 7 4 1 6 9 7 3 2
30 30 29 27 25 22 15 13 12 11 11 8 4 4 6 16 15 19 13 10 28 28 27 22 13 15 8 7 13 9 14 8 9 6 1 4 5 9 7 3 7 1 1 5 5
32 33 32 29 24 19 11 10 9 9 8 6 4 4 10 16 11 5 2 4 5 27 19 24 18 14 5 7 7 3 9 11 4 9 3 4 9 15 7 4 8 7 7 7 7
33 35 33 33 22 13 4 7 9 8 8 7 6 5 6 12 25 21 9 8 12 7 23 26 23 11 9 4 2 8 3 10 7 10 6 8 9 12 10 8 10 8 7 8 8
33 34 35 26 12 3 2 6 7 9 9 9 5 8 8 3 15 16 15 8 8 13 24 20 12 4 12 8 5 6 6 12 10 11 5 11 3 15 13 12 9 9 10 8 7
30 31 29 21 10 4 4 4 6 8 4 5 8 4 7 4 9 13 11 10 4 11 14 13 5 6 9 9 11 12 10 13 13 17 17 10 10 5 5 5 8 7 6 5 6
28 27 23 17 12 8 8 5 3 4 6 5 2 11 6 9 4 5 10 6 9 12 7 16 8 17 27 18 9 8 11 14 13 8 14 15 12 12 7 6 6 7 7 7 7
25 24 21 14 11 11 10 5 4 4 6 7 7 8 5 4 4 7 12 15 10 15 15 9 14 11 14 14 15 8 11 18 4 10 7 7 11 9 9 8 8 8 8 7 5
24 23 21 12 10 9 10 8 5 5 4 2 3 3 3 3 2 6 7 10 6 20 20 12 8 12 16 16 17 9 8 10 7 5 2 3 7 10 5 1 3 4 5 6 5
23 24 17 11 5 7 5 8 5 6 3 5 4 3 1 3 3 5 3 2 2 19 14 5 4 13 9 13 15 10 6 3 11 7 3 8 4 13 9 5 5 7 6 6 5
23 23 13 6 8 4 6 8 5 3 1 11 5 3 2 2 5 4 7 5 3 10 5 3 12 16 5 9 9 7 7 8 7 6 2 8 2 3 10 7 7 6 6 6 6
27 19 10 5 5 1 4 10 7 1 6 4 3 3 1 4 3 5 6 4 5 9 16 6 3 4 6 8 9 7 9 9 3 1 2 7 6 5 8 11 8 7 8 7 6
31 16 6 4 3 5 8 5 2 5 2 8 3 4 7 5 7 7 2 6 4 5 3 3 4 4 3 9 5 10 8 4 3 2 3 1 4 6 11 11 8 8 9 7 6
21 7 0 3 3 4 5 1 7 3 3 5 3 11 7 3 3 1 8 11 8 8 3 3 2 1 3 2 5 6 7 4 5 4 4 2 4 4 11 10 9 8 7 6 4
13 2 2 1 2 3 1 4 2 1 3 5 3 3 2 5 6 4 7 5 5 3 3 4 2 1 2 3 3 3 1 2 2 2 4 5 3 5 10 9 7 8 8 7 6
12 5 2 3 2 1 1 4 1 3 5 7 2 2 6 5 3 3 3 4 3 2 4 3 5 2 2 3 8 3 2 1 1 3 3 4 6 4 10 10 8 8 8 7 6
4 3 2 2 4 3 3 2 3 5 4 5 7 6 7 4 4 6 6 3 4 2 5 8 2 4 5 3 4 2 2 2 0 2 1 4 4 1 15 10 8 7 6 5 5
6 1 2 3 0 2 2 1 1 5 3 2 5 4 4 2 4 4 7 5 4 3 4 4 5 3 4 5 6 6 3 3 1 3 1 2 3 4 10 8 7 6 6 6 6
5 3 3 2 2 3 3 2 3 4 5 5 3 5 5 4 2 5 6 1 4 5 3 4 2 3 2 3 1 1 3 1 6 2 3 1 2 3 9 9 7 6 5 6 6
3 4 4 3 1 3 1 3 3 1 2 2 3 3 1 1 5 3 5 2 2 4 5 3 2 3 3 3 4 3 5 5 4 2 3 3 5 4 7 6 7 7 6 6 6
3 3 3 3 3 6 5 3 3 1 3 3 3 4 2 2 2 2 6 5 2 1 1 2 3 3 4 6 4 2 5 7 5 6 4 4 8 8 8 5 6 5 7 5 6
4 3 4 5 9 8 2 1 3 1 1 2 3 2 1 5 6 3 5 5 3 4 3 2 2 2 1 4 5 3 6 8 9 10 8 6 4 2 5 6 4 3 6 4 4
10 7 2 6 7 5 3 5 6 4 3 2 7 2 3 6 4 5 5 4 4 5 4 4 4 2 1 1 4 6 12 12 7 7 10 8 6 3 3 3 3 4 5 4 4
Wind_Direction
325 325 318 313 309 309 308 306 303 301 299 294 288 284 276 258 269 255 244 229 225 198 154 194 207 237 247 217 225 226 232 217 216 238 259 279 150 114 341 306 107 158 79 103 113
329 327 322 318 311 307 304 302 300 297 296 291 285 283 282 255 268 257 243 230 223 214 207 195 194 215 218 202 211 220 219 228 237 239 270 289 176 155 156 259 272 175 109 123 126
328 324 320 317 310 306 302 301 297 296 293 290 284 280 281 259 281 267 243 220 220 215 209 204 189 202 211 196 217 221 232 224 238 302 29 332 199 154 161 241 219 198 162 141 133
327 325 322 316 308 303 297 295 292 295 295 291 282 277 269 228 239 38 229 202 207 203 201 198 186 196 205 205 207 222 220 257 244 92 70 305 334 225 250 204 348 69 67 110 162
332 328 322 318 307 296 292 290 285 289 295 290 277 269 230 231 247 284 333 203 196 196 205 198 189 191 209 201 209 225 246 220 239 77 313 325 306 287 259 110 24 85 79 352 330
337 333 330 321 309 292 281 283 278 287 296 311 291 246 233 250 252 263 243 223 206 197 204 200 201 195 217 192 211 222 237 281 159 137 265 152 259 261 255 289 153 241 205 237 249
339 338 333 327 316 307 271 275 281 286 289 296 297 237 252 245 266 57 210 209 218 201 201 207 205 205 207 208 234 54 183 258 239 143 164 134 241 244 246 290 269 222 215 240 263
344 342 339 328 317 311 259 273 283 285 284 284 282 245 253 258 256 266 266 285 238 248 218 205 205 217 216 162 99 191 175 203 199 163 172 174 237 231 236 242 259 241 236 228 223
348 348 348 352 353 21 300 295 284 276 271 263 246 209 258 231 236 250 238 235 272 263 217 218 204 214 204 188 167 193 181 224 181 187 200 199 233 246 221 214 239 252 247 235 247
352 353 2 12 35 42 341 317 279 267 260 213 236 212 318 287 341 237 211 197 272 256 187 208 157 191 191 194 182 177 215 206 206 201 197 197 237 291 140 167 225 265 272 241 241
353 357 5 12 12 11 354 299 220 194 239 244 250 248 264 357 297 217 152 173 239 206 157 176 172 194 193 200 201 187 199 243 201 166 189 215 212 233 218 203 228 246 251 252 256
351 354 356 355 1 355 338 348 50 352 299 247 268 274 36 31 318 223 171 184 241 175 151 160 207 197 182 199 221 221 204 217 226 143 176 201 233 229 226 197 211 237 246 255 280
348 347 349 346 337 351 5 6 337 322 273 99 49 4 18 8 334 278 226 165 197 161 144 155 178 177 197 206 211 199 238 202 157 123 328 311 244 222 232 355 305 314 288 307 349
343 342 342 350 334 351 19 2 349 337 272 27 38 64 167 58 251 277 325 316 29 146 151 104 159 158 168 232 212 201 222 186 121 125 208 179 255 210 188 196 205 220 213 183 105
342 338 333 359 314 3 328 321 331 262 75 342 323 314 59 199 143 28 43 36 65 84 134 120 154 164 158 223 202 221 125 99 123 188 24 195 270 197 132 193 193 159 115 109 99
337 334 323 5 274 56 312 302 308 243 34 353 301 334 26 311 50 47 57 22 114 65 54 43 16 140 163 246 305 124 98 83 54 112 246 214 200 195 177 188 162 144 152 158 130
332 324 282 304 344 331 325 306 256 31 287 337 358 129 110 71 44 15 326 156 114 118 102 42 20 352 61 156 175 151 135 129 165 199 233 35 172 265 187 145 150 151 152 145 153
340 324 326 243 299 324 327 260 50 13 10 304 356 50 58 124 134 153 105 106 74 79 98 136 183 347 50 267 177 165 179 163 184 185 153 12 226 281 113 104 99 105 109 120 156
353 14 250 172 222 254 189 45 85 262 304 314 270 98 150 95 120 131 74 90 125 151 135 149 125 86 197 343 354 178 174 354 357 257 104 187 136 356 116 122 146 156 182 173 138
335 291 208 245 155 194 3 77 241 177 270 237 73 340 122 129 104 147 110 103 106 58 126 150 107 85 147 69 22 273 210 135 16 147 212 208 171 213 178 162 179 161 182 148 159
283 290 179 281 157 238 61 53 233 183 243 327 1 47 119 98 81 74 66 109 80 140 269 146 60 139 151 169 166 140 196 280 353 149 236 150 248 87 176 155 174 149 117 132 146
312 323 229 187 10 273 91 91 353 354 145 248 291 20 48 124 53 63 84 64 12 175 90 1 115 126 85 106 145 232 215 165 130 224 209 177 280 312 152 142 123 141 159 151 112
332 296 272 231 42 85 154 160 322 347 5 347 28 4 318 47 80 91 92 161 21 31 67 170 133 107 114 172 96 224 235 23 92 38 229 97 245 74 125 139 159 173 154 135 123
293 338 329 265 246 341 138 192 174 228 310 314 354 298 254 91 15 117 109 69 343 65 355 360 89 75 152 123 107 180 213 170 108 130 197 223 138 153 137 174 193 160 142 122 118
355 48 1 319 43 333 311 337 301 190 220 266 182 284 299 133 152 105 94 138 125 133 19 51 101 79 27 98 100 228 198 185 157 229 162 329 158 172 184 184 129 115 128 130 146
10 2 346 294 293 277 165 339 318 53 307 154 305 58 306 33 34 124 167 187 175 177 147 97 114 96 264 162 181 228 238 204 210 227 265 289 319 295 105 115 134 181 125 159 147
360 352 327 300 313 288 360 8 357 6 148 292 315 269 221 76 1 19 40 49 71 151 176 135 127 138 154 167 279 274 224 208 186 189 202 212 221 154 140 115 154 138 145 140 102